Weather History for Huron, SD

Change the Weather History Date:

Tuesday, October 15, 2013

  Actual Average Record
Temperature  
Mean Temperature 42 °F 48 °F  
Max Temperature 48 °F 61 °F 92 °F (1958)
Min Temperature 35 °F 36 °F 15 °F (1893)
Degree Days  
Heating Degree Days 23 17  
Month to date heating degree days 158 208  
Since 1 July heating degree days 233 404  
Cooling Degree Days 0 0  
Month to date cooling degree days 0 0  
Year to date cooling degree days 848 738  
Moisture  
Dew Point 41 °F    
Average Humidity 90    
Maximum Humidity 100    
Minimum Humidity 79    
Precipitation  
Precipitation 0.22 in 0.06 in 1.35 in (1957)
Month to date precipitation 4.89 0.96  
Year to date precipitation 23.50 20.68  
Snow  
Snow 0.00 in 0.10 in 0.40 in (1992)
Month to date snowfall 0.0 0.3  
Since 1 July snowfall 0.0 0.3  
Since 1 September snowfall 0.0 0.3  
Snow Depth 0.00 in    
Sea Level Pressure  
Sea Level Pressure 29.92 in    
Wind  
Wind Speed 18 mph (NNW)    
Max Wind Speed 29 mph    
Max Gust Speed 37 mph    
Visibility 9 miles    
Events Rain    
T = Trace of Precipitation, MM = Missing Value Source: NWS Daily Summary

Daily Weather History Graph

Daily Weather History Graph

Search for Another Location

Airport:

Trip Planner

Search our weather history database for the weather conditions in past years. The results will help you decide how hot, cold, wet, or windy it might be!

Date:

Astronomy

Oct. 15, 2013 Rise Set
Actual Time 7:48 AM CDT 6:48 PM CDT
Civil Twilight 7:18 AM CDT 7:17 PM CDT
Nautical Twilight 6:45 AM CDT 7:51 PM CDT
Astronomical Twilight 6:11 AM CDT 8:24 PM CDT
Moon 5:00 PM CDT (10/15) 4:05 AM CDT (10/15)
Length of Visible Light 11h 58m
Length of Day
10h 59m
Waxing Gibbous, 88% of the Moon is Illuminated
Oct 15
Waxing Gibbous
Oct 18
Full
Oct 26
Last Quarter
Nov 3
New
Nov 9
First Quarter

Hourly Weather History & Observations

Time (CDT) Temp. Windchill Dew Point Humidity Pressure Visibility Wind Dir Wind Speed Gust Speed Precip Events Conditions
12:55 AM 46.9 °F - 46.0 °F 97% 29.69 in 5.0 mi NNE 9.2 mph - 0.21 in Rain Rain
1:55 AM 48.0 °F - 46.0 °F 93% 29.69 in 10.0 mi NNE 5.8 mph - 0.08 in Rain Light Rain
2:55 AM 46.9 °F - 45.0 °F 93% 29.70 in 10.0 mi NNW 11.5 mph - 0.01 in   Overcast
3:55 AM 46.9 °F - 44.1 °F 90% 29.71 in 9.0 mi NNW 13.8 mph - 0.01 in Rain Light Rain
4:55 AM 46.0 °F 39.0 °F 44.1 °F 93% 29.72 in 10.0 mi NNW 17.3 mph - 0.01 in Rain Light Rain
5:55 AM 45.0 °F 37.1 °F 43.0 °F 93% 29.75 in 10.0 mi NNW 19.6 mph 27.6 mph 0.01 in Rain Light Rain
6:55 AM 45.0 °F 36.2 °F 42.1 °F 90% 29.78 in 7.0 mi NNW 24.2 mph 31.1 mph 0.03 in Rain Light Rain
7:55 AM 44.1 °F 35.0 °F 42.1 °F 93% 29.81 in 10.0 mi NNW 24.2 mph 32.2 mph 0.02 in Rain Light Rain
8:55 AM 44.1 °F 35.4 °F 42.1 °F 93% 29.85 in 10.0 mi North 21.9 mph 33.4 mph 0.02 in Rain Light Rain
9:18 AM 44.6 °F 35.7 °F 41.0 °F 87% 29.85 in 10.0 mi North 24.2 mph 33.4 mph 0.00 in Rain Light Rain
9:55 AM 44.1 °F 34.6 °F 41.0 °F 89% 29.89 in 10.0 mi NNW 26.5 mph 34.5 mph 0.00 in Rain Light Rain
10:55 AM 44.1 °F 35.0 °F 41.0 °F 89% 29.92 in 9.0 mi NNW 24.2 mph 34.5 mph 0.00 in Rain Light Rain
11:47 AM 44.6 °F 36.1 °F 39.2 °F 81% 29.93 in 10.0 mi NNW 21.9 mph 35.7 mph 0.02 in Rain Light Rain
11:55 AM 44.1 °F 35.2 °F 39.9 °F 85% 29.96 in 10.0 mi North 23.0 mph 33.4 mph 0.02 in Rain Light Rain
12:55 PM 44.1 °F 35.4 °F 39.9 °F 85% 29.98 in 10.0 mi NNW 21.9 mph 32.2 mph 0.00 in Rain Light Rain
1:03 PM 44.6 °F 36.1 °F 41.0 °F 87% 29.96 in 10.0 mi North 21.9 mph 27.6 mph 0.00 in Rain Light Rain
1:28 PM 44.6 °F 35.5 °F 39.2 °F 81% 29.96 in 10.0 mi North 25.3 mph 34.5 mph 0.00 in Rain Light Rain
1:36 PM 44.6 °F 35.7 °F 39.2 °F 81% 29.96 in 10.0 mi North 24.2 mph 33.4 mph 0.00 in Rain Light Rain
1:55 PM 44.1 °F 35.4 °F 39.9 °F 85% 29.99 in 7.0 mi North 21.9 mph 34.5 mph 0.00 in Rain Light Rain
2:55 PM 43.0 °F 34.5 °F 39.0 °F 86% 30.01 in 10.0 mi NNW 19.6 mph 32.2 mph 0.01 in Rain Light Rain
3:55 PM 43.0 °F 34.0 °F 39.0 °F 86% 30.03 in 10.0 mi NNW 21.9 mph 29.9 mph 0.01 in Rain Light Rain
4:23 PM 42.8 °F 33.8 °F 39.2 °F 87% 30.01 in 10.0 mi NNW 21.9 mph 27.6 mph 0.00 in   Overcast
4:55 PM 43.0 °F 35.1 °F 39.0 °F 86% 30.04 in 10.0 mi North 17.3 mph 29.9 mph 0.00 in   Overcast
5:55 PM 43.0 °F 35.1 °F 39.0 °F 86% 30.04 in 10.0 mi NNW 17.3 mph 27.6 mph N/A   Overcast
6:47 PM 42.8 °F 34.3 °F 37.4 °F 81% 30.03 in 10.0 mi NNW 19.6 mph 26.5 mph N/A   Overcast
6:55 PM 43.0 °F 34.5 °F 37.9 °F 82% 30.05 in 10.0 mi NNW 19.6 mph 26.5 mph N/A   Overcast
7:55 PM 43.0 °F 35.7 °F 37.0 °F 80% 30.07 in 10.0 mi NNW 15.0 mph - N/A   Overcast
8:55 PM 43.0 °F 36.4 °F 37.0 °F 80% 30.09 in 10.0 mi NW 12.7 mph - N/A   Overcast
9:55 PM 43.0 °F 36.8 °F 37.0 °F 80% 30.10 in 10.0 mi NW 11.5 mph - N/A   Overcast
10:55 PM 43.0 °F 36.0 °F 37.0 °F 80% 30.11 in 10.0 mi NNW 13.8 mph - N/A   Overcast
11:55 PM 41.0 °F 34.3 °F 35.1 °F 79% 30.10 in 10.0 mi NNW 11.5 mph - N/A   Clear